Home   Weather   Fort Lauderdale   Past weeks

Flag for USA Past Weather in Fort Lauderdale, Florida, USA — Yesterday and Last 2 Weeks

Now
77 °F

Passing clouds.


Feels Like: 78 °F
Forecast: 75 / 81 °F
Wind: 13 mph from Southeast

Location: Fort Lauderdale / Hollywood International Airport

Current Time: Dec 5, 2016 at 3:48:49 am

Latest Report: Dec 5, 2016 at 2:53 am


Visibility: 10 mi

Pressure: 30.00 "Hg

Humidity: 85%

Dew Point: 72 °F

Location of Fort LauderdaleLocation

Past Weather in Fort Lauderdale — Graph

°F

Fort Lauderdale Temperature Yesterday

Maximum temperature yesterday: 80 °F (at 10:53 am)
Minimum temperature yesterday: 76 °F (at 12:53 am)
Average temperature yesterday: 77 °F

High & Low Weather Summary for the Past Weeks

 TemperatureHumidityPressure
High83 °F (Dec 2, 12:53 pm)100% (Dec 1, 8:53 pm)30.21 "Hg (Dec 1, 8:53 pm)
Low57 °F (Nov 21, 4:53 am)29% (Nov 21, 7:53 pm)29.93 "Hg (Dec 1, 2:53 pm)
Average75 °F70%30.05 "Hg
* Reported Nov 20 1:53 am — Dec 5 1:53 am, Fort Lauderdale, Weather by CustomWeather, © 2016

Note: Actual official high and low records may vary slightly from our data, if they occured in-between our weather recording intervals... More about our weather records

Advertising

Fort Lauderdale Weather History for the Previous 24 Hours

Scroll right to see more
 ConditionsComfort  
Time TempWeatherWind HumidityBarometerVisibility
1:53 am
Mon, Dec 5
77 °FPartly cloudy.13 mph85%30.01 "Hg10 mi
12:53 am77 °FPartly cloudy.13 mph85%30.01 "Hg10 mi
11:53 pm
Sun, Dec 4
77 °FPassing clouds.15 mph82%30.03 "Hg10 mi
10:53 pm78 °FPartly cloudy.16 mph79%30.04 "Hg10 mi
10:00 pm77 °FPassing clouds.13 mph82%30.06 "Hg10 mi
8:53 pm77 °FPartly cloudy.13 mph79%30.05 "Hg10 mi
7:53 pm77 °FPartly cloudy.12 mph77%30.04 "Hg10 mi
6:53 pm77 °FPassing clouds.13 mph74%30.03 "Hg10 mi
5:53 pm78 °FPassing clouds.10 mph69%30.02 "Hg10 mi
4:53 pm78 °FPartly sunny.10 mph71%30.02 "Hg10 mi
3:53 pm78 °FBroken clouds.16 mph74%30.01 "Hg10 mi
2:53 pm78 °FCloudy.16 mph74%30.01 "Hg10 mi
1:53 pm80 °FMostly cloudy.18 mph69%30.01 "Hg10 mi
12:53 pm79 °FCloudy.16 mph72%30.03 "Hg10 mi
11:53 am80 °FCloudy.16 mph67%30.06 "Hg10 mi
10:53 am80 °FCloudy.18 mph67%30.08 "Hg10 mi
9:53 am79 °FCloudy.16 mph69%30.08 "Hg10 mi
8:53 am77 °FMostly cloudy.17 mph74%30.06 "Hg10 mi
7:53 am76 °FBroken clouds.16 mph74%30.04 "Hg10 mi
6:53 am76 °FBroken clouds.15 mph77%30.04 "Hg10 mi
5:53 am76 °FPassing clouds.13 mph74%30.03 "Hg10 mi
4:53 am76 °FPassing clouds.9 mph72%30.02 "Hg10 mi
3:53 am76 °FOvercast.13 mph72%30.02 "Hg10 mi
Weather by CustomWeather, © 2016

See weather overviewHow to use our weather pages